Regional Weather Roundup
Issued by NWS

Home | Current Version | Previous Version | Graphics & Text | Print | Product List | Glossary On
Versions: 1 2 3 4 5 6 7 8 9 10 11 12 13 14 15 16 17 18 19 20 21 22 23 24 25 26 27 28 29 30 31 32 33 34 35 36 37 38 39 40 41 42 43 44 45 46 47 48 49 50
000
ASUS43 KIND 051609
RWRIN

WEATHER ROUNDUP FOR INDIANA
NATIONAL WEATHER SERVICE INDIANAPOLIS IN
1200 PM EDT THU MAY 05 2016

NOTE: "FAIR" INDICATES FEW OR NO CLOUDS BELOW 12,000 FEET WITH NO
SIGNIFICANT WEATHER AND/OR OBSTRUCTIONS TO VISIBILITY.

* - STATION DOES NOT REPORT WEATHER SUCH AS PRECIPITATION OR FOG.

+ - STATION NOT QUALITY CONTROLLED BY THE NATIONAL WEATHER SERVICE.
    USE DATA WITH CAUTION...ESPECIALLY DEWPOINT AND RELATIVE
    HUMIDITY OBSERVATIONS.

INZ001>003-010>013-019-020-051700-
NORTHWEST INDIANA

CITY           SKY/WX    TMP DP  RH WIND       PRES   REMARKS
GARY /AIRPORT/ PTSUNNY   48  45  87 N17G29    30.03R
KNOX *+        PTSUNNY   48  39  71 N14       29.96S
LA PORTE +     MOSUNNY   49  47  90 N15       29.98R
MICHIGAN CITY+ CLOUDY    43  43 100 N9G17     30.00R
MONTICELLO +   CLOUDY    47  42  80 N10       29.95R
RENSSELAER +   MOSUNNY   50  43  76 N15G21    29.97R
VALPARAISO     PTSUNNY   48  41  76 N12G22    29.98S

$$

LMZ046-743>745-051700-
SOUTHERN LAKE MICHIGAN

STATION/POSITION TIME  TEMP    WIND        PRES    WAVE
                       AIR SEA DIR/SP/G            HT
                 (UTC) (F)     (DEG/KT/KT) (MB)    (FT)
BURNS HARBOR     1516   42     360/ 15/ 19 1016.6R
MICHIGAN CITY    1500   42     350/ 15/ 18   N/A

$$

INZ004-005-014>016-021>024-051700-
NORTH CENTRAL INDIANA

CITY           SKY/WX    TMP DP  RH WIND       PRES   REMARKS
ELKHART        SUNNY     55  48  76 N9        29.94S
GOSHEN         SUNNY     56  47  71 N9        29.92R
LOGANSPORT +   CLOUDY    48  45  87 N13       29.94R
PERU/GRISSOM   CLOUDY    52  48  84 N14       29.90R
ROCHESTER +    PTSUNNY   55  48  76 N12G17    29.93S
SOUTH BEND     MOSUNNY   53  45  74 N9        29.96S
WARSAW +       MOSUNNY   54  46  76 N13       29.92S

$$

INZ006>009-017-018-025>027-051700-
NORTHEAST INDIANA

CITY           SKY/WX    TMP DP  RH WIND       PRES   REMARKS
ANGOLA *+        N/A     57  46  67 N9        29.89S
AUBURN +       LGT RAIN  59  45  58 NE12G20   29.89R
FORT WAYNE     MOSUNNY   59  47  64 N12       29.89R
HUNTINGTON +   PTSUNNY   56  47  72 N10       29.89R

$$

INZ028-029-035-036-043>045-051>053-051700-
WEST CENTRAL INDIANA

CITY           SKY/WX    TMP DP  RH WIND       PRES   REMARKS
CRAWFORDSVL +  CLOUDY    47  46  96 N10       29.94R
GREENCASTLE +  CLOUDY    45  45 100 N9        29.94R
LAFAYETTE      CLOUDY    47  41  80 N10       29.96R
TERRE HAUTE      N/A     50  43  77 N13       29.95R

$$

INZ030>032-037>040-046>048-054>057-064-065-051700-
CENTRAL INDIANA

CITY           SKY/WX    TMP DP  RH WIND       PRES   REMARKS
ANDERSON       CLOUDY    50  46  87 N12       29.90R
CP ATTERBURY + CLOUDY    48  41  76 N10       29.91R
COLUMBUS       CLOUDY    48  45  87 N13       29.90R
FRANKFORT +      N/A     47  46  94 N14       29.95R
GREENWOOD *+   CLOUDY    48  43  81 NW10      29.91R
INDIANAPOLIS   DRIZZLE   48  44  86 N10       29.90R
-EAGLE CREEK   CLOUDY    48  45  89 NW9       29.91R
KOKOMO *+      CLOUDY    52  45  76 N14       29.91R
MARION +       CLOUDY    52  45  78 N14       29.91R
SHELBYVILLE    CLOUDY    48  43  82 N14       29.89R
ZIONSVILLE +   CLOUDY    47  45  92 N14       29.92R

$$

INZ033-034-041-042-049-050-058-059-051700-
EAST CENTRAL INDIANA

CITY           SKY/WX    TMP DP  RH WIND       PRES   REMARKS
MUNCIE         CLOUDY    52  44  74 NE10      29.88S

$$

INZ060-061-067>069-081>083-085>088-051700-
SOUTHWEST INDIANA

CITY           SKY/WX    TMP DP  RH WIND       PRES   REMARKS
EVANSVILLE     CLOUDY    52  41  66 N13       29.95R
HUNTINGBURG *+ CLOUDY    52  39  62 N12G17    29.92R
WASHINGTON +   CLOUDY    52  44  73 N13       29.93R

$$

INZ062-063-066-070>080-084-089>092-051700-
SOUTH CENTRAL AND SOUTHEAST INDIANA

CITY           SKY/WX    TMP DP  RH WIND       PRES   REMARKS
BLOOMINGTON    CLOUDY    50  41  71 N12G18    29.91R
MADISON *+     CLOUDY    50  37  62 NW8       29.90R
NORTH VERNON + CLOUDY    48  46  93 N10       29.89R
SEYMOUR +      CLOUDY    50  41  71 N12       29.90R

$$





USA.gov is the U.S. government's official web portal to all federal, state and local government web resources and services.